Location: *
(44.1392°N, 4.8079°E)
Time: 22:35:58
(UTC+00:00)

Resurs 1-4 Rocket - Pass Details

Date: 21 June 2021
Orbit: 800 x 813 km, 98.6° (Epoch: 02 August)

Event Time Altitude Azimuth Distance (km) Brightness Sun altitude
Rises 00:49:35 0° 19° (NNE) 3,344 6.9 -20.7°
Reaches altitude 10° 00:52:01 10° 25° (NNE) 2,409 5.7 -20.6°
Maximum altitude 00:57:10 49° 99° (E) 1,045 2.7 -20.3°
Enters shadow 00:59:28 30° 157° (SSE) 1,425 3.0 -20.2°
